Time,TemperatureF,DewpointF,PressureIn,WindDirection,WindDirectionDegrees,WindSpeedMPH,WindSpeedGustMPH,Humidity,HourlyPrecipIn,Conditions,Clouds,dailyrainin,SoftwareType,DateUTC
2013-01-19 00:05:00,34.3,21.0,30.19,SE,142,4.0,5.0,58,0.00,,,0.00,Wunderground v.1.15,2013-01-19 05:05:00,
2013-01-19 00:10:00,34.4,20.7,30.19,South,185,4.0,4.0,57,0.00,,,0.00,Wunderground v.1.15,2013-01-19 05:10:00,
2013-01-19 00:15:00,34.4,20.7,30.18,South,185,3.0,4.0,57,0.00,,,0.00,Wunderground v.1.15,2013-01-19 05:15:00,
2013-01-19 00:25:00,34.3,21.0,30.18,SSE,153,3.0,3.0,58,0.00,,,0.00,Wunderground v.1.15,2013-01-19 05:25:00,
2013-01-19 00:31:00,34.3,20.6,30.18,South,175,3.0,3.0,57,0.00,,,0.00,Wunderground v.1.15,2013-01-19 05:31:00,
2013-01-19 00:35:00,34.3,20.6,30.18,SSE,155,3.0,4.0,57,0.00,,,0.00,Wunderground v.1.15,2013-01-19 05:35:00,
2013-01-19 00:40:00,34.3,20.6,30.18,SE,136,3.0,3.0,57,0.00,,,0.00,Wunderground v.1.15,2013-01-19 05:40:00,
2013-01-19 00:46:00,34.4,20.3,30.17,East,91,3.0,3.0,56,0.00,,,0.00,Wunderground v.1.15,2013-01-19 05:46:00,
2013-01-19 00:55:00,34.3,20.6,30.17,SSW,206,3.0,11.0,57,0.00,,,0.00,Wunderground v.1.15,2013-01-19 05:55:00,
2013-01-19 01:00:00,34.4,20.3,30.17,SE,146,3.0,3.0,56,0.00,,,0.00,Wunderground v.1.15,2013-01-19 06:00:00,
2013-01-19 01:10:00,34.4,20.3,30.17,SSE,167,2.0,9.0,56,0.00,,,0.00,Wunderground v.1.15,2013-01-19 06:10:00,
2013-01-19 01:15:00,34.6,20.1,30.17,SE,132,3.0,9.0,55,0.00,,,0.00,Wunderground v.1.15,2013-01-19 06:15:00,
2013-01-19 01:25:00,34.7,20.2,30.17,South,181,3.0,6.0,55,0.00,,,0.00,Wunderground v.1.15,2013-01-19 06:25:00,
2013-01-19 01:30:00,34.7,20.2,30.17,SW,233,3.0,6.0,55,0.00,,,0.00,Wunderground v.1.15,2013-01-19 06:30:00,
2013-01-19 01:40:00,34.6,20.1,30.17,SW,215,3.0,5.0,55,0.00,,,0.00,Wunderground v.1.15,2013-01-19 06:40:00,
2013-01-19 01:45:00,34.6,20.1,30.16,SW,228,3.0,6.0,55,0.00,,,0.00,Wunderground v.1.15,2013-01-19 06:45:00,
2013-01-19 01:55:00,34.6,20.1,30.16,South,172,3.0,3.0,55,0.00,,,0.00,Wunderground v.1.15,2013-01-19 06:55:00,
2013-01-19 02:00:00,34.6,20.1,30.17,SW,235,4.0,8.0,55,0.00,,,0.00,Wunderground v.1.15,2013-01-19 07:00:00,
2013-01-19 02:10:00,34.7,21.4,30.17,SSE,159,4.0,5.0,58,0.00,,,0.00,Wunderground v.1.15,2013-01-19 07:10:00,
2013-01-19 02:15:00,35.0,20.0,30.17,SE,138,4.0,5.0,54,0.00,,,0.00,Wunderground v.1.15,2013-01-19 07:15:00,
2013-01-19 02:25:00,35.3,19.9,30.17,ESE,118,4.0,4.0,53,0.00,,,0.00,Wunderground v.1.15,2013-01-19 07:25:00,
2013-01-19 02:30:00,35.5,20.0,30.16,SE,143,4.0,4.0,53,0.00,,,0.00,Wunderground v.1.15,2013-01-19 07:30:00,
2013-01-19 02:40:00,35.8,19.9,30.16,South,190,4.0,4.0,52,0.00,,,0.00,Wunderground v.1.15,2013-01-19 07:40:00,
2013-01-19 02:45:00,35.9,19.5,30.16,SSE,164,4.0,4.0,51,0.00,,,0.00,Wunderground v.1.15,2013-01-19 07:45:00,
2013-01-19 02:55:00,36.0,19.1,30.16,ESE,108,4.0,7.0,50,0.00,,,0.00,Wunderground v.1.15,2013-01-19 07:55:00,
2013-01-19 03:00:00,35.9,19.5,30.16,SSW,209,3.0,3.0,51,0.00,,,0.00,Wunderground v.1.15,2013-01-19 08:00:00,
2013-01-19 03:10:00,36.5,19.6,30.16,SE,136,4.0,4.0,50,0.00,,,0.00,Wunderground v.1.15,2013-01-19 08:10:00,
2013-01-19 03:15:00,36.8,19.4,30.15,WSW,248,4.0,4.0,49,0.00,,,0.00,Wunderground v.1.15,2013-01-19 08:15:00,
2013-01-19 03:25:00,37.2,19.3,30.15,SSW,203,4.0,6.0,48,0.00,,,0.00,Wunderground v.1.15,2013-01-19 08:25:00,
2013-01-19 03:30:00,37.5,19.6,30.15,SE,128,4.0,4.0,48,0.00,,,0.00,Wunderground v.1.15,2013-01-19 08:30:00,
2013-01-19 03:40:00,37.5,19.6,30.15,ESE,105,3.0,3.0,48,0.00,,,0.00,Wunderground v.1.15,2013-01-19 08:40:00,
2013-01-19 03:45:00,37.5,20.1,30.14,SSW,206,4.0,7.0,49,0.00,,,0.00,Wunderground v.1.15,2013-01-19 08:45:00,
2013-01-19 03:55:00,37.5,20.1,30.14,NW,307,4.0,8.0,49,0.00,,,0.00,Wunderground v.1.15,2013-01-19 08:55:00,
2013-01-19 04:00:00,37.5,20.1,30.13,SSE,164,4.0,5.0,49,0.00,,,0.00,Wunderground v.1.15,2013-01-19 09:00:00,
2013-01-19 04:10:00,37.5,20.1,30.13,SW,228,3.0,4.0,49,0.00,,,0.00,Wunderground v.1.15,2013-01-19 09:10:00,
2013-01-19 04:15:00,37.5,20.1,30.13,NNW,334,3.0,4.0,49,0.00,,,0.00,Wunderground v.1.15,2013-01-19 09:15:00,
2013-01-19 04:25:00,37.3,20.3,30.13,SSW,198,3.0,4.0,50,0.00,,,0.00,Wunderground v.1.15,2013-01-19 09:25:00,
2013-01-19 04:30:00,37.2,20.7,30.13,NNE,27,3.0,3.0,51,0.00,,,0.00,Wunderground v.1.15,2013-01-19 09:30:00,
2013-01-19 04:40:00,37.0,20.5,30.13,South,188,3.0,5.0,51,0.00,,,0.00,Wunderground v.1.15,2013-01-19 09:40:00,
2013-01-19 04:45:00,36.9,20.4,30.13,SE,128,3.0,5.0,51,0.00,,,0.00,Wunderground v.1.15,2013-01-19 09:45:00,
2013-01-19 04:55:00,36.9,20.4,30.13,WSW,257,2.0,3.0,51,0.00,,,0.00,Wunderground v.1.15,2013-01-19 09:55:00,
2013-01-19 05:00:00,36.9,20.4,30.13,SW,222,3.0,5.0,51,0.00,,,0.00,Wunderground v.1.15,2013-01-19 10:00:00,
2013-01-19 05:10:00,36.8,20.8,30.13,South,178,2.0,2.0,52,0.00,,,0.00,Wunderground v.1.15,2013-01-19 10:10:00,
2013-01-19 05:15:00,36.8,20.8,30.13,South,185,3.0,3.0,52,0.00,,,0.00,Wunderground v.1.15,2013-01-19 10:15:00,
2013-01-19 05:25:00,36.8,21.3,30.13,SW,231,3.0,6.0,53,0.00,,,0.00,Wunderground v.1.15,2013-01-19 10:25:00,
2013-01-19 05:30:00,36.9,20.9,30.12,SSE,166,4.0,4.0,52,0.00,,,0.00,Wunderground v.1.15,2013-01-19 10:30:00,
2013-01-19 05:40:00,36.9,20.9,30.12,SSW,193,4.0,4.0,52,0.00,,,0.00,Wunderground v.1.15,2013-01-19 10:40:00,
2013-01-19 05:45:00,36.9,20.9,30.13,SSE,157,4.0,4.0,52,0.00,,,0.00,Wunderground v.1.15,2013-01-19 10:45:00,
2013-01-19 05:55:00,36.6,20.6,30.13,South,180,2.0,5.0,52,0.00,,,0.00,Wunderground v.1.15,2013-01-19 10:55:00,
2013-01-19 06:00:00,36.6,20.6,30.13,SSE,168,2.0,6.0,52,0.00,,,0.00,Wunderground v.1.15,2013-01-19 11:00:00,
2013-01-19 06:10:00,36.5,21.0,30.13,ENE,77,2.0,3.0,53,0.00,,,0.00,Wunderground v.1.15,2013-01-19 11:10:00,
2013-01-19 07:50:00,36.8,20.3,30.12,SSW,212,4.0,4.0,51,0.00,,,0.00,Wunderground v.1.15,2013-01-19 12:50:00,
2013-01-19 07:55:00,36.8,20.3,30.12,East,81,4.0,6.0,51,0.00,,,0.00,Wunderground v.1.15,2013-01-19 12:55:00,
2013-01-19 08:00:00,36.9,20.4,30.12,SW,221,4.0,4.0,51,0.00,,,0.00,Wunderground v.1.15,2013-01-19 13:00:00,
2013-01-19 08:05:00,37.0,20.5,30.12,South,184,4.0,11.0,51,0.00,,,0.00,Wunderground v.1.15,2013-01-19 13:05:00,
2013-01-19 08:10:00,37.0,20.5,30.12,East,88,4.0,5.0,51,0.00,,,0.00,Wunderground v.1.15,2013-01-19 13:10:00,
2013-01-19 08:15:00,37.2,20.7,30.12,NE,34,4.0,5.0,51,0.00,,,0.00,Wunderground v.1.15,2013-01-19 13:15:00,
2013-01-19 08:25:00,37.5,21.5,30.12,SSE,167,3.0,9.0,52,0.00,,,0.00,Wunderground v.1.15,2013-01-19 13:25:00,
2013-01-19 08:30:00,37.6,21.5,30.12,ESE,109,3.0,3.0,52,0.00,,,0.00,Wunderground v.1.15,2013-01-19 13:30:00,
2013-01-19 08:40:00,38.0,21.5,30.12,East,89,3.0,3.0,51,0.00,,,0.00,Wunderground v.1.15,2013-01-19 13:40:00,
2013-01-19 08:45:00,38.3,21.7,30.12,WSW,252,4.0,4.0,51,0.00,,,0.00,Wunderground v.1.15,2013-01-19 13:45:00,
2013-01-19 08:55:00,38.8,22.2,30.12,South,173,5.0,5.0,51,0.00,,,0.00,Wunderground v.1.15,2013-01-19 13:55:00,
2013-01-19 09:00:00,38.8,22.2,30.12,SE,136,4.0,7.0,51,0.00,,,0.00,Wunderground v.1.15,2013-01-19 14:00:00,
2013-01-19 09:10:00,39.2,22.6,30.12,South,191,4.0,4.0,51,0.00,,,0.00,Wunderground v.1.15,2013-01-19 14:10:00,
2013-01-19 09:15:00,39.3,22.7,30.12,SSE,158,4.0,10.0,51,0.00,,,0.00,Wunderground v.1.15,2013-01-19 14:15:00,
2013-01-19 09:25:00,39.5,22.8,30.12,West,273,5.0,7.0,51,0.00,,,0.00,Wunderground v.1.15,2013-01-19 14:25:00,
2013-01-19 09:30:00,39.8,22.7,30.12,SW,216,5.0,6.0,50,0.00,,,0.00,Wunderground v.1.15,2013-01-19 14:30:00,
2013-01-19 09:40:00,40.3,23.1,30.12,SSW,211,5.0,5.0,50,0.00,,,0.00,Wunderground v.1.15,2013-01-19 14:40:00,
2013-01-19 09:45:00,40.5,22.8,30.12,SE,138,5.0,5.0,49,0.00,,,0.00,Wunderground v.1.15,2013-01-19 14:45:00,
2013-01-19 09:55:00,40.8,23.1,30.12,NW,317,4.0,6.0,49,0.00,,,0.00,Wunderground v.1.15,2013-01-19 14:55:00,
2013-01-19 10:00:00,40.8,23.6,30.12,SE,138,4.0,4.0,50,0.00,,,0.00,Wunderground v.1.15,2013-01-19 15:00:00,
2013-01-19 10:10:00,40.9,23.7,30.12,SSE,148,3.0,3.0,50,0.00,,,0.00,Wunderground v.1.15,2013-01-19 15:10:00,
2013-01-19 10:15:00,40.9,23.7,30.12,West,281,5.0,7.0,50,0.00,,,0.00,Wunderground v.1.15,2013-01-19 15:15:00,
2013-01-19 10:25:00,41.2,23.5,30.12,SSE,161,5.0,10.0,49,0.00,,,0.00,Wunderground v.1.15,2013-01-19 15:25:00,
2013-01-19 10:30:00,41.5,23.7,30.12,NW,309,4.0,4.0,49,0.00,,,0.00,Wunderground v.1.15,2013-01-19 15:30:00,
2013-01-19 10:40:00,41.8,23.5,30.12,WSW,248,4.0,4.0,48,0.00,,,0.00,Wunderground v.1.15,2013-01-19 15:40:00,
2013-01-19 10:45:00,42.1,23.3,30.12,West,269,4.0,7.0,47,0.00,,,0.00,Wunderground v.1.15,2013-01-19 15:45:00,
2013-01-19 10:55:00,42.3,23.5,30.12,SW,224,5.0,5.0,47,0.00,,,0.00,Wunderground v.1.15,2013-01-19 15:55:00,
2013-01-19 11:00:00,42.6,22.7,30.10,WNW,300,4.0,4.0,45,0.00,,,0.00,Wunderground v.1.15,2013-01-19 16:00:00,
2013-01-19 11:05:00,42.8,22.9,30.10,SSE,165,5.0,5.0,45,0.00,,,0.00,Wunderground v.1.15,2013-01-19 16:05:00,
2013-01-19 11:20:00,43.3,22.3,30.10,South,178,5.0,5.0,43,0.00,,,0.00,Wunderground v.1.15,2013-01-19 16:20:00,
2013-01-19 11:25:00,43.5,22.5,30.10,SSE,163,6.0,6.0,43,0.00,,,0.00,Wunderground v.1.15,2013-01-19 16:25:00,
2013-01-19 11:30:00,43.8,22.7,30.09,SSE,157,5.0,6.0,43,0.00,,,0.00,Wunderground v.1.15,2013-01-19 16:30:00,
2013-01-19 11:40:00,44.1,22.4,30.09,East,88,6.0,6.0,42,0.00,,,0.00,Wunderground v.1.15,2013-01-19 16:40:00,
2013-01-19 11:45:00,44.3,22.6,30.07,SE,134,7.0,7.0,42,0.00,,,0.00,Wunderground v.1.15,2013-01-19 16:45:00,
2013-01-19 11:55:00,44.9,23.2,30.07,SSW,205,4.0,7.0,42,0.00,,,0.00,Wunderground v.1.15,2013-01-19 16:55:00,
2013-01-19 12:00:00,45.4,23.0,30.05,SSW,213,5.0,5.0,41,0.00,,,0.00,Wunderground v.1.15,2013-01-19 17:00:00,
2013-01-19 12:10:00,45.7,22.7,30.05,ESE,112,5.0,9.0,40,0.00,,,0.00,Wunderground v.1.15,2013-01-19 17:10:00,
2013-01-19 12:20:00,46.0,23.0,30.05,WNW,294,5.0,5.0,40,0.00,,,0.00,Wunderground v.1.15,2013-01-19 17:20:00,
2013-01-19 12:30:00,46.5,22.8,30.03,SSE,157,5.0,5.0,39,0.00,,,0.00,Wunderground v.1.15,2013-01-19 17:30:00,
2013-01-19 12:40:00,47.0,23.9,30.03,SSE,156,5.0,5.0,40,0.00,,,0.00,Wunderground v.1.15,2013-01-19 17:40:00,
2013-01-19 12:45:00,47.0,21.4,30.02,WSW,252,6.0,6.0,36,0.00,,,0.00,Wunderground v.1.15,2013-01-19 17:45:00,
2013-01-19 12:55:00,47.4,23.0,30.02,West,267,6.0,6.0,38,0.00,,,0.00,Wunderground v.1.15,2013-01-19 17:55:00,
2013-01-19 13:00:00,47.6,21.9,30.01,South,172,6.0,6.0,36,0.00,,,0.00,Wunderground v.1.15,2013-01-19 18:00:00,
2013-01-19 13:15:00,48.6,22.1,29.99,SW,220,5.0,5.0,35,0.00,,,0.00,Wunderground v.1.15,2013-01-19 18:15:00,
2013-01-19 13:25:00,49.1,22.6,29.99,SE,138,4.0,8.0,35,0.00,,,0.00,Wunderground v.1.15,2013-01-19 18:25:00,
2013-01-19 13:30:00,49.2,23.4,29.99,SSE,157,5.0,5.0,36,0.00,,,0.00,Wunderground v.1.15,2013-01-19 18:30:00,
2013-01-19 13:40:00,49.4,22.2,29.99,SSW,206,4.0,4.0,34,0.00,,,0.00,Wunderground v.1.15,2013-01-19 18:40:00,
2013-01-19 13:45:00,49.6,20.2,29.97,SSE,163,4.0,5.0,31,0.00,,,0.00,Wunderground v.1.15,2013-01-19 18:45:00,
2013-01-19 13:55:00,49.6,20.2,29.97,SE,141,5.0,7.0,31,0.00,,,0.00,Wunderground v.1.15,2013-01-19 18:55:00,
2013-01-19 14:00:00,49.9,21.2,29.97,SSW,199,5.0,6.0,32,0.00,,,0.00,Wunderground v.1.15,2013-01-19 19:00:00,
2013-01-19 14:15:00,50.1,21.3,29.95,West,276,6.0,8.0,32,0.00,,,0.00,Wunderground v.1.15,2013-01-19 19:15:00,
2013-01-19 14:25:00,50.4,20.9,29.95,SSE,168,5.0,5.0,31,0.00,,,0.00,Wunderground v.1.15,2013-01-19 19:25:00,
2013-01-19 14:30:00,50.5,20.9,29.95,NW,315,5.0,5.0,31,0.00,,,0.00,Wunderground v.1.15,2013-01-19 19:30:00,
2013-01-19 14:45:00,51.0,20.6,29.94,SSE,153,6.0,6.0,30,0.00,,,0.00,Wunderground v.1.15,2013-01-19 19:45:00,
2013-01-19 14:55:00,51.0,20.6,29.94,SSE,155,5.0,6.0,30,0.00,,,0.00,Wunderground v.1.15,2013-01-19 19:55:00,
2013-01-19 15:05:00,51.4,21.7,29.93,SSE,148,4.0,5.0,31,0.00,,,0.00,Wunderground v.1.15,2013-01-19 20:05:00,
2013-01-19 15:15:00,51.7,22.0,29.93,SSW,198,3.0,5.0,31,0.00,,,0.00,Wunderground v.1.15,2013-01-19 20:15:00,
2013-01-19 15:25:00,51.6,21.1,29.93,SE,139,5.0,9.0,30,0.00,,,0.00,Wunderground v.1.15,2013-01-19 20:25:00,
2013-01-19 15:30:00,51.4,20.2,29.92,South,190,6.0,13.0,29,0.00,,,0.00,Wunderground v.1.15,2013-01-19 20:30:00,
2013-01-19 15:40:00,51.1,20.7,29.92,SSE,153,6.0,6.0,30,0.00,,,0.00,Wunderground v.1.15,2013-01-19 20:40:00,
2013-01-19 15:50:00,51.1,19.9,29.90,SW,228,4.0,4.0,29,0.00,,,0.00,Wunderground v.1.15,2013-01-19 20:50:00,
2013-01-19 15:55:00,51.1,20.7,29.90,ESE,102,6.0,6.0,30,0.00,,,0.00,Wunderground v.1.15,2013-01-19 20:55:00,
2013-01-19 16:00:00,51.0,21.4,29.90,WNW,300,4.0,4.0,31,0.00,,,0.00,Wunderground v.1.15,2013-01-19 21:00:00,
2013-01-19 16:10:00,51.1,20.7,29.90,South,186,5.0,9.0,30,0.00,,,0.00,Wunderground v.1.15,2013-01-19 21:10:00,
2013-01-19 16:15:00,51.1,21.5,29.90,South,171,5.0,9.0,31,0.00,,,0.00,Wunderground v.1.15,2013-01-19 21:15:00,
2013-01-19 16:25:00,51.0,21.4,29.90,WSW,252,4.0,4.0,31,0.00,,,0.00,Wunderground v.1.15,2013-01-19 21:25:00,
2013-01-19 16:30:00,50.8,22.0,29.89,SSW,194,4.0,7.0,32,0.00,,,0.00,Wunderground v.1.15,2013-01-19 21:30:00,
2013-01-19 16:45:00,50.5,22.4,29.89,SW,221,4.0,7.0,33,0.00,,,0.00,Wunderground v.1.15,2013-01-19 21:45:00,
2013-01-19 17:00:00,49.5,24.9,29.89,SSW,206,2.0,6.0,38,0.00,,,0.00,Wunderground v.1.15,2013-01-19 22:00:00,
2013-01-19 17:15:00,48.8,24.3,29.88,SSE,160,3.0,3.0,38,0.00,,,0.00,Wunderground v.1.15,2013-01-19 22:15:00,
2013-01-19 17:25:00,48.5,24.0,29.88,SE,132,3.0,3.0,38,0.00,,,0.00,Wunderground v.1.15,2013-01-19 22:25:00,
2013-01-19 17:30:00,48.3,23.8,29.88,SSW,192,3.0,10.0,38,0.00,,,0.00,Wunderground v.1.15,2013-01-19 22:30:00,
2013-01-19 17:40:00,48.3,25.1,29.88,WSW,248,4.0,5.0,40,0.00,,,0.00,Wunderground v.1.15,2013-01-19 22:40:00,
2013-01-19 17:45:00,48.0,24.8,29.87,ESE,103,4.0,5.0,40,0.00,,,0.00,Wunderground v.1.15,2013-01-19 22:45:00,
2013-01-19 17:55:00,47.3,24.8,29.87,SSE,165,3.0,3.0,41,0.00,,,0.00,Wunderground v.1.15,2013-01-19 22:55:00,
2013-01-19 18:00:00,47.3,24.2,29.86,South,175,4.0,4.0,40,0.00,,,0.00,Wunderground v.1.15,2013-01-19 23:00:00,
2013-01-19 18:10:00,47.1,24.6,29.86,SSW,209,5.0,7.0,41,0.00,,,0.00,Wunderground v.1.15,2013-01-19 23:10:00,
2013-01-19 18:15:00,47.0,24.5,29.85,SE,143,4.0,7.0,41,0.00,,,0.00,Wunderground v.1.15,2013-01-19 23:15:00,
2013-01-19 18:25:00,46.8,24.3,29.85,South,169,4.0,8.0,41,0.00,,,0.00,Wunderground v.1.15,2013-01-19 23:25:00,
2013-01-19 18:30:00,47.0,24.5,29.84,South,181,4.0,7.0,41,0.00,,,0.00,Wunderground v.1.15,2013-01-19 23:30:00,
2013-01-19 18:40:00,47.0,24.5,29.84,SSE,159,4.0,4.0,41,0.00,,,0.00,Wunderground v.1.15,2013-01-19 23:40:00,
2013-01-19 18:45:00,47.4,23.7,29.83,SSE,148,4.0,4.0,39,0.00,,,0.00,Wunderground v.1.15,2013-01-19 23:45:00,
2013-01-19 19:00:00,47.6,24.4,29.83,SE,138,5.0,5.0,40,0.00,,,0.00,Wunderground v.1.15,2013-01-20 00:00:00,
2013-01-19 19:10:00,47.6,24.4,29.83,SSE,159,4.0,4.0,40,0.00,,,0.00,Wunderground v.1.15,2013-01-20 00:10:00,
2013-01-19 19:20:00,47.4,23.7,29.83,SW,225,4.0,4.0,39,0.00,,,0.00,Wunderground v.1.15,2013-01-20 00:20:00,
2013-01-19 19:30:00,47.7,23.9,29.85,SSE,168,5.0,5.0,39,0.00,,,0.00,Wunderground v.1.15,2013-01-20 00:30:00,
2013-01-19 19:40:00,47.6,23.8,29.85,East,87,4.0,4.0,39,0.00,,,0.00,Wunderground v.1.15,2013-01-20 00:40:00,
2013-01-19 19:45:00,47.4,23.7,29.85,SE,136,3.0,4.0,39,0.00,,,0.00,Wunderground v.1.15,2013-01-20 00:45:00,
2013-01-19 19:55:00,47.4,23.7,29.85,South,171,3.0,4.0,39,0.00,,,0.00,Wunderground v.1.15,2013-01-20 00:55:00,
2013-01-19 20:05:00,47.4,24.3,29.85,South,189,3.0,6.0,40,0.00,,,0.00,Wunderground v.1.15,2013-01-20 01:05:00,
2013-01-19 20:15:00,47.3,24.2,29.85,NNW,330,3.0,3.0,40,0.00,,,0.00,Wunderground v.1.15,2013-01-20 01:15:00,
2013-01-19 20:25:00,47.1,24.0,29.85,SE,129,2.0,4.0,40,0.00,,,0.00,Wunderground v.1.15,2013-01-20 01:25:00,
2013-01-19 20:30:00,47.0,23.9,29.84,SW,217,3.0,5.0,40,0.00,,,0.00,Wunderground v.1.15,2013-01-20 01:30:00,
2013-01-19 20:45:00,46.7,23.6,29.84,SE,126,4.0,5.0,40,0.00,,,0.00,Wunderground v.1.15,2013-01-20 01:45:00,
2013-01-19 20:55:00,46.5,24.0,29.84,East,83,4.0,4.0,41,0.00,,,0.00,Wunderground v.1.15,2013-01-20 01:55:00,
2013-01-19 21:00:00,46.5,24.0,29.83,South,182,4.0,4.0,41,0.00,,,0.00,Wunderground v.1.15,2013-01-20 02:00:00,
2013-01-19 21:05:00,46.4,24.5,29.83,East,96,4.0,4.0,42,0.00,,,0.00,Wunderground v.1.15,2013-01-20 02:05:00,
2013-01-19 21:15:00,46.1,24.8,29.83,South,173,3.0,4.0,43,0.00,,,0.00,Wunderground v.1.15,2013-01-20 02:15:00,
2013-01-19 21:30:00,46.0,24.7,29.83,West,280,5.0,5.0,43,0.00,,,0.00,Wunderground v.1.15,2013-01-20 02:30:00,
2013-01-19 21:40:00,45.8,25.1,29.83,SE,143,5.0,5.0,44,0.00,,,0.00,Wunderground v.1.15,2013-01-20 02:40:00,
2013-01-19 21:45:00,45.7,25.0,29.83,ENE,76,4.0,5.0,44,0.00,,,0.00,Wunderground v.1.15,2013-01-20 02:45:00,
2013-01-19 21:55:00,45.4,25.3,29.83,ENE,61,4.0,4.0,45,0.00,,,0.00,Wunderground v.1.15,2013-01-20 02:55:00,
2013-01-19 22:00:00,45.4,25.8,29.83,SE,131,4.0,4.0,46,0.00,,,0.00,Wunderground v.1.15,2013-01-20 03:00:00,
2013-01-19 22:10:00,45.1,25.5,29.82,ESE,114,4.0,4.0,46,0.00,,,0.00,Wunderground v.1.15,2013-01-20 03:10:00,
2013-01-19 22:15:00,45.1,25.5,29.82,SE,137,4.0,4.0,46,0.00,,,0.00,Wunderground v.1.15,2013-01-20 03:15:00,
2013-01-19 22:25:00,44.8,25.8,29.82,WNW,301,4.0,4.0,47,0.00,,,0.00,Wunderground v.1.15,2013-01-20 03:25:00,
2013-01-19 22:30:00,44.6,25.6,29.82,SSW,200,4.0,11.0,47,0.00,,,0.00,Wunderground v.1.15,2013-01-20 03:30:00,
2013-01-19 22:40:00,44.5,26.0,29.81,SSW,204,4.0,5.0,48,0.00,,,0.00,Wunderground v.1.15,2013-01-20 03:40:00,
2013-01-19 22:45:00,44.3,25.8,29.81,SE,128,4.0,5.0,48,0.00,,,0.00,Wunderground v.1.15,2013-01-20 03:45:00,
2013-01-19 22:55:00,44.2,25.7,29.81,SW,222,4.0,7.0,48,0.00,,,0.00,Wunderground v.1.15,2013-01-20 03:55:00,
2013-01-19 23:00:00,44.3,26.3,29.81,SE,138,4.0,9.0,49,0.00,,,0.00,Wunderground v.1.15,2013-01-20 04:00:00,
2013-01-19 23:10:00,44.2,26.2,29.81,ESE,111,4.0,5.0,49,0.00,,,0.00,Wunderground v.1.15,2013-01-20 04:10:00,
2013-01-19 23:15:00,44.2,26.2,29.81,ESE,109,4.0,5.0,49,0.00,,,0.00,Wunderground v.1.15,2013-01-20 04:15:00,
2013-01-19 23:25:00,44.1,26.6,29.81,SSW,211,4.0,4.0,50,0.00,,,0.00,Wunderground v.1.15,2013-01-20 04:25:00,
2013-01-19 23:30:00,44.1,26.6,29.81,ENE,62,4.0,4.0,50,0.00,,,0.00,Wunderground v.1.15,2013-01-20 04:30:00,
2013-01-19 23:40:00,43.9,26.9,29.80,SSE,166,4.0,4.0,51,0.00,,,0.00,Wunderground v.1.15,2013-01-20 04:40:00,
2013-01-19 23:45:00,43.9,26.9,29.80,SSW,211,4.0,4.0,51,0.00,,,0.00,Wunderground v.1.15,2013-01-20 04:45:00,